Regional Weather Roundup
Issued by NWS Memphis, TN

Home | Current Version | Previous Version | Text Only | Print | Product List | Glossary On
Versions: 1 2 3 4 5 6 7 8 9 10 11 12 13 14 15 16 17 18 19 20 21 22 23 24 25 26 27 28 29 30 31 32 33 34 35 36 37 38 39 40 41 42 43 44 45 46 47 48 49 50
000
ASUS44 KMEG 051210
RWRMEG
MEMPHIS CWA HOURLY WEATHER ROUNDUP
NATIONAL WEATHER SERVICE MEMPHIS TN
600 AM CST THU MAR 05 2015

...WEST TENNESSEE...

CITY           SKY/WX    TMP DP  RH WIND       PRES   REMARKS
MEMPHIS INTL   LGT SNOW  19  16  86 N16       30.37R FOG     WCI   5
6HR MIN TEMP:  20; 6HR MAX TEMP:  24; 6HR PCP:  0.35;

NWS MEMPHIS      N/A    N/A N/A N/A MISG        N/A
JACKSON        CLOUDY    19  15  84 N18       30.33R FOG     WCI   4
6HR MIN TEMP:  19; 6HR MAX TEMP:  24; 6HR PCP: TRACE;

LEXINGTON      CLOUDY    18  16  93 N10       30.25S WCI   6
SAVANNAH       CLOUDY    21  19  93 N10       30.25R WCI  10
DYERSBURG      CLOUDY    19   3  49 N8        30.40R WCI   9
6HR MIN TEMP:  18; 6HR MAX TEMP:  19;

UNION CITY       N/A     18  16  93 NE9       30.36S WCI   6
PARIS          CLOUDY    16  12  86 N10       30.33R WCI   3


...EASTERN ARKANSAS...

CITY           SKY/WX    TMP DP  RH WIND       PRES   REMARKS
JONESBORO      FLURRIES  21  12  68 N8        30.42R WCI  11
6HR MIN TEMP:  19; 6HR MAX TEMP:  21; 6HR PCP: TRACE;

WEST MEMPHIS   CLOUDY    20  18  92 N23G30    30.40R FOG     WCI   3
6HR MIN TEMP:  20; 6HR MAX TEMP:  22; 6HR PCP:  0.15;

BATESVILLE     CLOUDY    21  12  68 NW6       30.44S WCI  14
6HR MIN TEMP:  19; 6HR MAX TEMP:  21;

NEWPORT        FLURRIES  23  14  68 N13       30.44S WCI  11
6HR MIN TEMP:  20; 6HR MAX TEMP:  23; 6HR PCP: TRACE;

WALNUT RIDGE   CLOUDY    21  10  63 N9        30.45R WCI  11
6HR MIN TEMP:  19; 6HR MAX TEMP:  21;

BLYTHEVILLE    FLURRIES  20  16  84 N13       30.40F WCI   7
6HR MIN TEMP:  19; 6HR MAX TEMP:  20; 6HR PCP: TRACE;

STUTTGART      CLOUDY    21  18  86 N17       30.42R WCI   7
6HR MIN TEMP:  21; 6HR MAX TEMP:  25;

PINE BLUFF     CLOUDY    21  18  88 N18G24    30.42R FOG     WCI   6
6HR MIN TEMP:  21; 6HR MAX TEMP:  27;

MONTICELLO     MIX PCPN  24  18  77 N12G20    30.39R WCI  13
6HR MIN TEMP:  24; 6HR MAX TEMP:  30; 6HR PCP:  0.50;



...NORTH MISSISSIPPI...

CITY           SKY/WX    TMP DP  RH WIND       PRES   REMARKS
TUPELO         LGT SNOW  26  22  84 N15G23    30.20R FOG     WCI  14
6HR MIN TEMP:  26; 6HR MAX TEMP:  34; 6HR PCP:  0.35;

OXFORD         CLOUDY    21  18  86 N14G25    30.27S FOG     WCI   8
TUNICA         LGT SNOW  23  21  93 N9        30.39R WCI  13
CLARKSDALE       N/A     23  21  93 CALM      30.37R
CORINTH        LGT SNOW  23  19  86 MISG      30.26R
GREENWOOD      CLOUDY    27  24  89 N15G24    30.27R FOG     WCI  15
6HR MIN TEMP:  27; 6HR MAX TEMP:  35;

STARKVILLE     MIX PCPN  32  32 100 CALM      30.18R
GOLDEN TRIANGL FRZ RAIN  32  28  86 N14G20    30.14R WCI  22


...SOUTHEAST MISSOURI...

CITY           SKY/WX    TMP DP  RH WIND       PRES   REMARKS
WEST PLAINS    CLOUDY    19   6  57 NW6       30.40R WCI  11
6HR MIN TEMP:  19; 6HR MAX TEMP:  20;

POPLAR BLUFF   CLOUDY    22   8  55 N10       30.43R WCI  11
6HR MIN TEMP:  21; 6HR MAX TEMP:  22;

CAPE GIRARDEAU MOCLDY    20  10  65 N8        30.44R WCI  10
6HR MIN TEMP:  20; 6HR MAX TEMP:  21; 6HR PCP: TRACE;



...NORTHWEST ALABAMA...

CITY           SKY/WX    TMP DP  RH WIND       PRES   REMARKS
MUSCLE SHOALS  MIX PCPN  28  25  86 N10G21    30.15R WCI  19
6HR MIN TEMP:  28; 6HR MAX TEMP:  34; 6HR PCP:  0.61;



...MIDDLE TENNESSEE...

CITY           SKY/WX    TMP DP  RH WIND       PRES   REMARKS
NASHVILLE      SNOW      21  19  93 N10       30.26R VSB 1/2 WCI  10
6HR MIN TEMP:  21; 6HR MAX TEMP:  28; 6HR PCP:  0.14;

CLARKSVILLE    CLOUDY    19  15  84 N15       30.32R FOG     WCI   5
6HR MIN TEMP:  18; 6HR MAX TEMP:  20; 6HR PCP:  0.03;

COLUMBIA         N/A    N/A N/A N/A N10       30.19R


...WESTERN KENTUCKY...

CITY           SKY/WX    TMP DP  RH WIND       PRES   REMARKS
PADUCAH        CLOUDY    20   7  57 N16G23    30.40R WCI   6
6HR MIN TEMP:  18; 6HR MAX TEMP:  20; 6HR PCP:  0.05;

FORT CAMPBELL  FLURRIES  18  14  85 N9        30.33R WCI   7
6HR MIN TEMP:  18; 6HR MAX TEMP:  19; 6HR PCP:  0.09;



...CENTRAL ARKANSAS...

CITY           SKY/WX    TMP DP  RH WIND       PRES   REMARKS
LITTLE ROCK    LGT SNOW  23  18  80 N12       30.46R FOG     WCI  12
6HR MIN TEMP:  22; 6HR MAX TEMP:  25; 6HR PCP:  0.23;



SKY/WX REPORTED AS FAIR MEANS FEW OR NO CLOUDS BELOW
12 THOUSAND FEET.



USA.gov is the U.S. government's official web portal to all federal, state and local government web resources and services.